ECHOSTAR 16

导读

ECHOSTAR 16(回声星16号)是美国EchoStar公司旗下的通信卫星,由劳拉空间系统公司研制,于2012年11月20日搭乘俄罗斯质子M/Briz-M运载火箭,从哈萨克斯坦拜科努尔航天发射场成功发射升空。该卫星质量达6258千克,设计服役寿命15年,主要为北美地区提供卫星电视直播与宽带通信服务,属于地球静止轨道通信卫星,是回声星系列卫星中负责拓展覆盖容量的重要成员。

基本信息
目录编号:
39008
目录名称:
ECHOSTAR 16
国际标识:
2012-065A
轨道中心:
EARTH
卫星名称:
ECHOSTAR 16
卫星全名:
--
卫星状态:
在轨 (已飞行5047 天)
发射日期:
2012-11-20 UTC
国别 :
美国 (US)
星等 :
--
该卫星已列入 空间交会检测服务 Space Conjunction Data Service (SCDS) ,当前飞行风险评估等级: 无高风险
轨道信息
数据来源 国际轨道数据 AOE轨道数据
星历时间 2026-09-15T19:44:56+0800
11小时前
查看轨道信息
2026-09-12T17:00:00+0800
3天前
查看轨道信息
半长轴 42165.121km 42164.728km
偏心率 0.0002057 0.0002118
轨道倾角 0.018° 0.020°
近地点辐角 28.344° 24.231°
升交点赤经 141.130° 139.998°
平近点角 299.709° 260.657°
近地点 35778.31km 35777.66km
远地点 35795.658km 35795.522km
周期 1436.117分钟 1436.097分钟
每日圈数 1.002704 1.002718
详细信息
使用方式:
暂无
2D轨道图
3D轨道图
轨道高度分析图
轨道倾角分析图
轨道综合分析图
查看轨道综合分析图
与全量物体交会距离演化趋势 订阅飞行安全评估服务
与全量物体交会风险概率演化趋势 订阅飞行安全评估服务